Hourly Weather Roundup
Issued by NWS Central Illinois

Home | Current Version | Previous Version | Text Only | Print | Product List | Glossary On
Versions: 1 2 3 4 5 6 7 8 9 10 11 12 13 14 15 16 17 18 19 20 21 22 23 24 25 26 27 28 29 30 31 32 33 34 35 36 37 38 39 40 41 42 43 44 45 46 47 48 49 50
000
NZUS43 KILX 260910
HWRILX

AREA WEATHER ROUNDUP
NATIONAL WEATHER SERVICE, LINCOLN IL
400 AM CDT MON SEP 26 2016


CITY           SKY/WX    TMP DP  RH WIND       PRES   REMARKS
BLOOMINGTON    LGT RAIN  58  55  90 W6        30.05S
CHAMPAIGN      LGT RAIN  58  55  90 W6        30.06R
DANVILLE       RAIN      59  57  94 W7        30.01S
DECATUR        LGT RAIN  59  56  89 W10       30.06F
EFFINGHAM      RAIN      61  60  94 W8        30.08R
FLORA          CLOUDY    64  59  85 NW5       30.08R
GALESBURG      CLOUDY    58  51  78 W9        30.08S
JACKSONVILLE   CLOUDY    59  57  92 W5        30.10R
LACON          CLOUDY    60  49  67 W5        30.04S
LAWRENCEVILLE  HVY RAIN  63  59  87 NW13      30.05S FOG
LITCHFIELD     LGT RAIN  57  55  90 NW9       30.10R
$$


CITY           SKY/WX    TMP DP  RH WIND       PRES   REMARKS
LINCOLN        CLOUDY    61  57  88 W3        30.05F
MACOMB         CLOUDY    59  51  76 W6        30.11S
MATTOON        RAIN      60  55  83 NW15G21   30.05R
MT CARMEL AP   RAIN      61  58  89 NW10G17   30.05R
OLNEY-NOBLE AP CLOUDY    61  59  94 CALM      30.08R
PARIS          CLOUDY    60  59  97 CALM      30.05S
PEORIA         CLOUDY    61  52  72 W6        30.06S
PONTIAC        CLOUDY    60  57  89 W9        30.03S
RANTOUL        LGT RAIN  59  58  94 W6        30.05R
ROBINSON       CLOUDY    61  55  80 N9        30.06R
SPRINGFIELD    CLOUDY    60  57  89 W6        30.09S
TAYLORVILLE    LGT RAIN  57  56  95 W7        30.07F
$$

...REGIONAL REPORTS...


CITY           SKY/WX    TMP DP  RH WIND       PRES   REMARKS
CHICAGO O`HARE CLOUDY    61  50  67 NW14G24   29.95F
KANKAKEE       DRIZZLE   58  58  97 W7        30.00F
MOLINE         CLOUDY    60  49  66 W10       30.05S
MOUNT STERLING MOCLDY    58  53  84 W3        30.10S
MOUNT VERNON   CLOUDY    64  54  68 CALM      30.09S
PITTSFIELD     MOCLDY    60  56  86 W5        30.12S
QUINCY         MOCLDY    60  52  74 W7        30.11S
ROCKFORD       CLOUDY    59  50  72 W9        30.01S
$$


CITY           SKY/WX    TMP DP  RH WIND       PRES   REMARKS
BURLINGTON     CLOUDY    57  52  83 W7        30.10S
CEDAR RAPIDS   CLEAR     51  48  89 W9        30.06F
DES MOINES     CLEAR     52  42  69 W7        30.14S
KIRKSVILLE     PTCLDY    54  47  77 NW7       30.17S
OTTUMWA        CLEAR     49  45  86 W8        30.12F
ST LOUIS       LGT RAIN  61  56  83 W7        30.12S
$$


CITY           SKY/WX    TMP DP  RH WIND       PRES   REMARKS
TERRE HAUTE    CLOUDY    62  56  80 NW9       30.03R
EVANSVILLE     CLOUDY    68  61  78 NW18G31   30.03R
INDIANAPOLIS   CLOUDY    65  59  81 NW20G35   29.99R
LAFAYETTE      HVY RAIN  59  57  93 NW6       30.01R FOG
MADISON        MOCLDY    57  49  74 VRB3      29.94F
MILWAUKEE      CLOUDY    61  50  67 W9G20     29.92S
$$





USA.gov is the U.S. government's official web portal to all federal, state and local government web resources and services.